| time (UTC) | temp F | wind direction | speed knots | gust knots | rain 1hr in | rain 24hr in | rain mn in | humidity % | barometer mb |
| 20260508075019 | 48 | 196 | 0.9 | 3.5 | 0.00 | 0.00 | 0.00 | 76 | 1011.7 |
| 20260508074519 | 48 | 197 | 0.9 | 2.6 | 0.00 | 0.00 | 0.00 | 75 | 1011.7 |
| 20260508074016 | 48 | 192 | 2.6 | 4.3 | 0.00 | 0.00 | 0.00 | 75 | 1011.7 |
| 20260508073520 | 48 | 193 | 1.7 | 2.6 | 0.00 | 0.00 | 0.00 | 75 | 1011.7 |
| 20260508073019 | 48 | 198 | 1.7 | 4.3 | 0.00 | 0.00 | 0.00 | 74 | 1011.7 |
| 20260508072516 | 48 | 193 | 2.6 | 7.0 | 0.00 | 0.00 | 0.00 | 73 | 1011.7 |
| 20260508072017 | 48 | 195 | 2.6 | 7.8 | 0.00 | 0.00 | 0.00 | 73 | 1011.7 |
| 20260508071517 | 48 | 208 | 2.6 | 6.1 | 0.00 | 0.00 | 0.00 | 72 | 1011.8 |
| 20260508071017 | 48 | 199 | 2.6 | 7.0 | 0.00 | 0.00 | 0.00 | 71 | 1011.8 |
| 20260508070517 | 48 | 202 | 2.6 | 4.3 | 0.00 | 0.00 | 0.00 | 71 | 1011.8 |
| 20260508070018 | 48 | 188 | 2.6 | 7.8 | 0.00 | 0.00 | 0.00 | 71 | 1011.8 |
| 20260508065517 | 47 | 199 | 2.6 | 6.1 | 0.00 | 0.00 | 0.00 | 72 | 1011.7 |
| 20260508065020 | 47 | 189 | 1.7 | 3.5 | 0.00 | 0.00 | 0.00 | 72 | 1011.7 |
| 20260508064520 | 47 | 189 | 1.7 | 3.5 | 0.00 | 0.00 | 0.00 | 72 | 1011.8 |
| 20260508064021 | 47 | 201 | 1.7 | 3.5 | 0.00 | 0.00 | 0.00 | 73 | 1011.8 |
| 20260508063520 | 47 | 186 | 0.9 | 3.5 | 0.00 | 0.00 | 0.00 | 74 | 1011.8 |
| 20260508063022 | 47 | 191 | 0.9 | 2.6 | 0.00 | 0.00 | 0.00 | 73 | 1011.8 |
| 20260508062521 | 47 | 195 | 0.0 | 1.7 | 0.00 | 0.00 | 0.00 | 73 | 1011.8 |
| 20260508062020 | 47 | 183 | 0.9 | 2.6 | 0.00 | 0.00 | 0.00 | 73 | 1011.8 |
| 20260508061521 | 47 | 200 | 0.9 | 1.7 | 0.00 | 0.00 | 0.00 | 72 | 1011.8 |
| 20260508061021 | 47 | 0.0 | 0.0 | 0.00 | 0.00 | 0.00 | 72 | 1011.8 | |
| 20260508060521 | 47 | 191 | 0.9 | 3.5 | 0.00 | 0.00 | 0.00 | 72 | 1011.8 |
| 20260508060022 | 47 | 194 | 0.0 | 1.7 | 0.00 | 0.00 | 0.00 | 72 | 1011.9 |
| 20260508055521 | 47 | 206 | 0.0 | 0.9 | 0.00 | 0.00 | 0.00 | 72 | 1011.9 |
| 20260508055021 | 47 | 203 | 0.0 | 1.7 | 0.00 | 0.00 | 0.00 | 72 | 1011.9 |
| 20260508054521 | 47 | 0.0 | 0.0 | 0.00 | 0.00 | 0.00 | 72 | 1012.0 | |
| 20260508054021 | 47 | 204 | 0.0 | 1.7 | 0.00 | 0.00 | 0.00 | 71 | 1012.0 |
| 20260508053521 | 47 | 276 | 0.0 | 0.9 | 0.00 | 0.00 | 0.00 | 71 | 1012.1 |
| 20260508053021 | 48 | 0.0 | 0.0 | 0.00 | 0.00 | 0.00 | 70 | 1012.2 | |
| 20260508052522 | 48 | 200 | 0.9 | 1.7 | 0.00 | 0.00 | 0.00 | 70 | 1012.2 |
| 20260508052021 | 48 | 178 | 0.9 | 1.7 | 0.00 | 0.00 | 0.00 | 70 | 1012.3 |
| 20260508051522 | 48 | 204 | 0.0 | 1.7 | 0.00 | 0.00 | 0.00 | 70 | 1012.3 |
| 20260508051022 | 48 | 287 | 0.0 | 1.7 | 0.00 | 0.00 | 0.00 | 69 | 1012.3 |
| 20260508050522 | 48 | 208 | 0.9 | 1.7 | 0.00 | 0.00 | 0.00 | 69 | 1012.3 |
| 20260508050023 | 48 | 232 | 0.0 | 2.6 | 0.00 | 0.00 | 0.00 | 68 | 1012.3 |
| 20260508045522 | 48 | 184 | 0.9 | 2.6 | 0.00 | 0.00 | 0.00 | 68 | 1012.3 |
| 20260508045023 | 48 | 178 | 0.9 | 2.6 | 0.00 | 0.00 | 0.00 | 68 | 1012.3 |
| 20260508044523 | 49 | 195 | 0.9 | 1.7 | 0.00 | 0.00 | 0.00 | 67 | 1012.3 |
| 20260508044023 | 49 | 198 | 0.9 | 4.3 | 0.00 | 0.00 | 0.00 | 67 | 1012.3 |
| 20260508043522 | 49 | 210 | 0.9 | 2.6 | 0.00 | 0.00 | 0.00 | 67 | 1012.4 |
| 20260508043023 | 49 | 204 | 0.9 | 1.7 | 0.00 | 0.00 | 0.00 | 67 | 1012.3 |
| 20260508042522 | 49 | 234 | 0.9 | 1.7 | 0.00 | 0.00 | 0.00 | 67 | 1012.3 |
| 20260508042023 | 49 | 222 | 0.9 | 2.6 | 0.00 | 0.00 | 0.00 | 66 | 1012.3 |
| 20260508041523 | 48 | 199 | 0.9 | 2.6 | 0.00 | 0.00 | 0.00 | 66 | 1012.3 |
| 20260508041023 | 48 | 204 | 0.9 | 1.7 | 0.00 | 0.00 | 0.00 | 67 | 1012.3 |
| 20260508040523 | 48 | 191 | 0.9 | 2.6 | 0.00 | 0.00 | 0.00 | 66 | 1012.3 |
| 20260508040023 | 48 | 190 | 0.9 | 1.7 | 0.00 | 0.00 | 0.00 | 66 | 1012.3 |
| 20260508035524 | 48 | 197 | 0.9 | 1.7 | 0.00 | 0.00 | 0.00 | 66 | 1012.3 |
| 20260508035023 | 47 | 189 | 0.9 | 2.6 | 0.00 | 0.00 | 0.00 | 66 | 1012.3 |
| 20260508034523 | 47 | 194 | 1.7 | 3.5 | 0.00 | 0.00 | 0.00 | 66 | 1012.4 |
| 20260508034024 | 47 | 180 | 1.7 | 3.5 | 0.00 | 0.00 | 0.00 | 65 | 1012.4 |
| 20260508033523 | 47 | 188 | 0.9 | 2.6 | 0.00 | 0.00 | 0.00 | 65 | 1012.5 |
| 20260508033024 | 47 | 183 | 0.9 | 2.6 | 0.00 | 0.00 | 0.00 | 64 | 1012.5 |
| 20260508032524 | 47 | 199 | 0.9 | 2.6 | 0.00 | 0.00 | 0.00 | 64 | 1012.5 |
| 20260508032024 | 47 | 181 | 0.9 | 3.5 | 0.00 | 0.00 | 0.00 | 65 | 1012.5 |
| 20260508031524 | 46 | 190 | 0.9 | 2.6 | 0.00 | 0.00 | 0.00 | 65 | 1012.5 |
| 20260508031025 | 46 | 184 | 1.7 | 3.5 | 0.00 | 0.00 | 0.00 | 67 | 1012.5 |
| 20260508030525 | 45 | 184 | 0.9 | 2.6 | 0.00 | 0.00 | 0.00 | 68 | 1012.6 |
| 20260508030024 | 45 | 203 | 0.9 | 1.7 | 0.00 | 0.00 | 0.00 | 70 | 1012.6 |
| 20260508025525 | 44 | 0.0 | 0.0 | 0.00 | 0.00 | 0.00 | 70 | 1012.5 | |
| 20260508025024 | 44 | 0.0 | 0.0 | 0.00 | 0.00 | 0.00 | 69 | 1012.5 | |
| 20260508024525 | 44 | 0.0 | 0.0 | 0.00 | 0.00 | 0.00 | 70 | 1012.5 | |
| 20260508024025 | 44 | 0.0 | 0.0 | 0.00 | 0.00 | 0.00 | 71 | 1012.5 | |
| 20260508023525 | 44 | 0.0 | 0.0 | 0.00 | 0.00 | 0.00 | 71 | 1012.5 | |
| 20260508023025 | 44 | 0.0 | 0.0 | 0.00 | 0.00 | 0.00 | 72 | 1012.4 | |
| 20260508022526 | 43 | 0.0 | 0.0 | 0.00 | 0.00 | 0.00 | 71 | 1012.4 | |
| 20260508022025 | 44 | 0.0 | 0.0 | 0.00 | 0.00 | 0.00 | 71 | 1012.3 | |
| 20260508021526 | 44 | 0.0 | 0.0 | 0.00 | 0.00 | 0.00 | 71 | 1012.3 | |
| 20260508021025 | 44 | 0.0 | 0.0 | 0.00 | 0.00 | 0.00 | 72 | 1012.3 | |
| 20260508020526 | 44 | 0.0 | 0.0 | 0.00 | 0.00 | 0.00 | 71 | 1012.3 | |
| 20260508020025 | 44 | 0.0 | 0.0 | 0.00 | 0.00 | 0.00 | 69 | 1012.2 | |
| 20260508015526 | 44 | 0.0 | 0.0 | 0.00 | 0.00 | 0.00 | 69 | 1012.2 | |
| 20260508015026 | 44 | 0.0 | 0.0 | 0.00 | 0.00 | 0.00 | 68 | 1012.2 | |
| 20260508014526 | 44 | 0.0 | 0.0 | 0.00 | 0.00 | 0.00 | 67 | 1012.2 | |
| 20260508014026 | 44 | 0.0 | 0.0 | 0.00 | 0.00 | 0.00 | 66 | 1012.2 | |
| 20260508013526 | 45 | 0.0 | 0.0 | 0.00 | 0.00 | 0.00 | 65 | 1012.1 | |
| 20260508013026 | 45 | 0.0 | 0.0 | 0.00 | 0.00 | 0.00 | 65 | 1012.0 | |
| 20260508012526 | 46 | 0.0 | 0.0 | 0.00 | 0.00 | 0.00 | 65 | 1011.9 | |
| 20260508012026 | 46 | 0.0 | 0.0 | 0.00 | 0.00 | 0.00 | 64 | 1011.9 | |
| 20260508011526 | 47 | 0.0 | 0.0 | 0.00 | 0.00 | 0.00 | 63 | 1011.9 | |
| 20260508011026 | 47 | 0.0 | 0.0 | 0.00 | 0.00 | 0.00 | 61 | 1011.8 | |
| 20260508010527 | 48 | 0.0 | 0.0 | 0.00 | 0.00 | 0.00 | 60 | 1011.8 | |
| 20260508010026 | 49 | 0.0 | 0.0 | 0.00 | 0.00 | 0.00 | 59 | 1011.8 | |
| 20260508005527 | 49 | 0.0 | 0.0 | 0.00 | 0.00 | 0.00 | 58 | 1011.7 | |
| 20260508005027 | 50 | 0.0 | 0.0 | 0.00 | 0.00 | 0.00 | 57 | 1011.7 | |
| 20260508004527 | 51 | 0.0 | 0.0 | 0.00 | 0.00 | 0.00 | 55 | 1011.7 | |
| 20260508004027 | 51 | 0.0 | 0.0 | 0.00 | 0.00 | 0.00 | 54 | 1011.7 | |
| 20260508003528 | 52 | 0.0 | 0.0 | 0.00 | 0.00 | 0.00 | 53 | 1011.6 | |
| 20260508003027 | 52 | 324 | 0.0 | 1.7 | 0.00 | 0.00 | 0.00 | 52 | 1011.6 |
| 20260508002528 | 53 | 328 | 0.0 | 1.7 | 0.00 | 0.00 | 0.00 | 50 | 1011.5 |
| 20260508002028 | 53 | 0.0 | 0.0 | 0.00 | 0.00 | 0.00 | 50 | 1011.5 | |
| 20260508001527 | 54 | 315 | 0.9 | 2.6 | 0.00 | 0.00 | 0.00 | 49 | 1011.4 |
| 20260508001028 | 54 | 269 | 0.9 | 1.7 | 0.00 | 0.00 | 0.00 | 48 | 1011.4 |
| 20260508000528 | 55 | 311 | 1.7 | 3.5 | 0.00 | 0.00 | 0.00 | 47 | 1011.4 |
| 20260508000028 | 55 | 289 | 1.7 | 3.5 | 0.00 | 0.00 | 0.00 | 46 | 1011.3 |
| 20260507235528 | 55 | 227 | 1.7 | 3.5 | 0.00 | 0.00 | 0.00 | 46 | 1011.3 |
| 20260507235028 | 56 | 244 | 0.9 | 3.5 | 0.00 | 0.00 | 0.00 | 46 | 1011.3 |
| 20260507234528 | 56 | 221 | 0.9 | 1.7 | 0.00 | 0.00 | 0.00 | 46 | 1011.3 |
| 20260507234029 | 56 | 278 | 0.9 | 3.5 | 0.00 | 0.00 | 0.00 | 45 | 1011.3 |
| 20260507233528 | 56 | 297 | 0.9 | 3.5 | 0.00 | 0.00 | 0.00 | 45 | 1011.2 |
| 20260507233021 | 56 | 298 | 2.6 | 5.2 | 0.00 | 0.00 | 0.00 | 44 | 1011.2 |
| 20260507232520 | 56 | 224 | 2.6 | 5.2 | 0.00 | 0.00 | 0.00 | 43 | 1011.1 |
| 20260507232029 | 57 | 294 | 1.7 | 3.5 | 0.00 | 0.00 | 0.00 | 44 | 1011.2 |
| 20260507231520 | 57 | 313 | 2.6 | 7.0 | 0.00 | 0.00 | 0.00 | 44 | 1011.3 |
| 20260507231020 | 57 | 300 | 2.6 | 6.1 | 0.00 | 0.00 | 0.00 | 44 | 1011.3 |
| 20260507230520 | 57 | 295 | 1.7 | 5.2 | 0.00 | 0.00 | 0.00 | 44 | 1011.4 |
| 20260507230020 | 57 | 261 | 2.6 | 5.2 | 0.00 | 0.00 | 0.00 | 44 | 1011.4 |
| 20260507225520 | 57 | 275 | 2.6 | 7.0 | 0.00 | 0.00 | 0.00 | 44 | 1011.5 |
| 20260507225029 | 57 | 254 | 1.7 | 3.5 | 0.00 | 0.00 | 0.00 | 43 | 1011.5 |
| 20260507224520 | 57 | 252 | 2.6 | 4.3 | 0.00 | 0.00 | 0.00 | 43 | 1011.4 |
| 20260507224021 | 57 | 265 | 1.7 | 5.2 | 0.00 | 0.00 | 0.00 | 44 | 1011.4 |
| 20260507223521 | 57 | 269 | 1.7 | 6.1 | 0.00 | 0.00 | 0.00 | 43 | 1011.4 |
| 20260507223021 | 57 | 266 | 2.6 | 5.2 | 0.00 | 0.00 | 0.00 | 44 | 1011.4 |
| 20260507222520 | 57 | 220 | 2.6 | 7.0 | 0.00 | 0.00 | 0.00 | 44 | 1011.4 |
| 20260507222021 | 57 | 249 | 2.6 | 6.1 | 0.00 | 0.00 | 0.00 | 44 | 1011.4 |
| 20260507221521 | 57 | 261 | 2.6 | 6.1 | 0.00 | 0.00 | 0.00 | 44 | 1011.5 |
| 20260507221021 | 57 | 276 | 2.6 | 7.8 | 0.00 | 0.00 | 0.00 | 43 | 1011.4 |
| 20260507220521 | 57 | 268 | 1.7 | 6.1 | 0.00 | 0.00 | 0.00 | 44 | 1011.4 |
| 20260507220016 | 57 | 285 | 2.6 | 6.1 | 0.00 | 0.00 | 0.00 | 43 | 1011.4 |
| 20260507215518 | 57 | 291 | 3.5 | 10.4 | 0.00 | 0.00 | 0.00 | 43 | 1011.4 |
| 20260507215022 | 57 | 257 | 3.5 | 7.0 | 0.00 | 0.00 | 0.00 | 43 | 1011.4 |
| 20260507214521 | 57 | 263 | 3.5 | 7.8 | 0.00 | 0.00 | 0.00 | 43 | 1011.3 |
| 20260507214022 | 57 | 263 | 3.5 | 7.0 | 0.00 | 0.00 | 0.00 | 43 | 1011.2 |
| 20260507213522 | 57 | 284 | 2.6 | 7.8 | 0.00 | 0.00 | 0.00 | 46 | 1011.2 |
| 20260507213023 | 57 | 246 | 3.5 | 7.8 | 0.00 | 0.00 | 0.00 | 46 | 1011.2 |
| 20260507212522 | 57 | 229 | 3.5 | 7.8 | 0.00 | 0.00 | 0.00 | 46 | 1011.2 |
| 20260507212022 | 57 | 275 | 3.5 | 7.0 | 0.00 | 0.00 | 0.00 | 46 | 1011.2 |
| 20260507211519 | 57 | 302 | 3.5 | 8.7 | 0.00 | 0.00 | 0.00 | 48 | 1011.2 |
| 20260507211017 | 57 | 230 | 3.5 | 9.6 | 0.00 | 0.00 | 0.00 | 50 | 1011.1 |
| 20260507210516 | 57 | 278 | 2.6 | 5.2 | 0.00 | 0.00 | 0.00 | 51 | 1011.1 |
| 20260507210016 | 57 | 223 | 2.6 | 7.8 | 0.00 | 0.00 | 0.00 | 53 | 1011.0 |
| 20260507205516 | 57 | 279 | 2.6 | 7.0 | 0.00 | 0.00 | 0.00 | 53 | 1011.0 |
| 20260507205017 | 56 | 263 | 2.6 | 4.3 | 0.00 | 0.00 | 0.00 | 53 | 1011.0 |
| 20260507204516 | 56 | 245 | 2.6 | 7.8 | 0.00 | 0.00 | 0.00 | 54 | 1011.0 |
| 20260507204016 | 55 | 247 | 2.6 | 5.2 | 0.00 | 0.00 | 0.00 | 55 | 1011.1 |
| 20260507203522 | 54 | 312 | 2.6 | 7.0 | 0.00 | 0.00 | 0.00 | 57 | 1011.1 |
| 20260507203023 | 54 | 250 | 1.7 | 5.2 | 0.00 | 0.00 | 0.00 | 56 | 1011.1 |
| 20260507202532 | 54 | 320 | 1.7 | 4.3 | 0.00 | 0.00 | 0.00 | 55 | 1011.1 |
| 20260507202022 | 54 | 276 | 1.7 | 4.3 | 0.00 | 0.00 | 0.00 | 56 | 1011.2 |
| 20260507201523 | 54 | 294 | 1.7 | 5.2 | 0.00 | 0.00 | 0.00 | 57 | 1011.2 |
| 20260507201017 | 54 | 273 | 2.6 | 6.1 | 0.00 | 0.00 | 0.00 | 56 | 1011.1 |
| 20260507200517 | 55 | 306 | 1.7 | 5.2 | 0.00 | 0.00 | 0.00 | 56 | 1011.1 |
| 20260507200017 | 55 | 286 | 1.7 | 6.1 | 0.00 | 0.00 | 0.00 | 56 | 1011.0 |
| 20260507195517 | 55 | 298 | 2.6 | 7.0 | 0.00 | 0.00 | 0.00 | 55 | 1011.1 |
| 20260507195017 | 55 | 311 | 2.6 | 7.0 | 0.00 | 0.00 | 0.00 | 55 | 1011.1 |
| 20260507194517 | 55 | 308 | 2.6 | 5.2 | 0.00 | 0.00 | 0.00 | 57 | 1011.1 |
| 20260507194018 | 55 | 281 | 2.6 | 5.2 | 0.00 | 0.00 | 0.00 | 55 | 1011.1 |
| 20260507193518 | 56 | 295 | 2.6 | 6.1 | 0.00 | 0.00 | 0.00 | 55 | 1011.0 |
| 20260507193018 | 56 | 343 | 2.6 | 7.0 | 0.00 | 0.00 | 0.00 | 53 | 1011.0 |
| 20260507192518 | 56 | 304 | 1.7 | 6.1 | 0.00 | 0.00 | 0.00 | 55 | 1011.1 |
| 20260507192018 | 56 | 308 | 1.7 | 4.3 | 0.00 | 0.00 | 0.00 | 55 | 1011.0 |
| 20260507191518 | 56 | 282 | 1.7 | 4.3 | 0.00 | 0.00 | 0.00 | 55 | 1011.0 |
| 20260507191018 | 57 | 244 | 2.6 | 6.1 | 0.00 | 0.00 | 0.00 | 53 | 1011.1 |
| 20260507190518 | 57 | 313 | 1.7 | 7.8 | 0.00 | 0.00 | 0.00 | 55 | 1011.1 |
| 20260507190018 | 57 | 320 | 1.7 | 6.1 | 0.00 | 0.00 | 0.00 | 55 | 1011.1 |
| 20260507185518 | 56 | 308 | 2.6 | 7.0 | 0.00 | 0.00 | 0.00 | 55 | 1011.2 |
| 20260507185018 | 57 | 295 | 1.7 | 4.3 | 0.00 | 0.00 | 0.00 | 54 | 1011.2 |
| 20260507184519 | 57 | 307 | 2.6 | 6.1 | 0.00 | 0.00 | 0.00 | 55 | 1011.2 |
| 20260507184018 | 56 | 270 | 1.7 | 4.3 | 0.00 | 0.00 | 0.00 | 57 | 1011.2 |
| 20260507183519 | 56 | 289 | 1.7 | 3.5 | 0.00 | 0.00 | 0.00 | 56 | 1011.2 |
| 20260507183018 | 57 | 320 | 1.7 | 4.3 | 0.00 | 0.00 | 0.00 | 55 | 1011.2 |
| 20260507182518 | 56 | 273 | 1.7 | 6.1 | 0.00 | 0.00 | 0.00 | 55 | 1011.3 |
| 20260507182019 | 56 | 316 | 1.7 | 4.3 | 0.00 | 0.00 | 0.00 | 57 | 1011.3 |
| 20260507181519 | 56 | 318 | 1.7 | 4.3 | 0.00 | 0.00 | 0.00 | 55 | 1011.3 |
| 20260507181019 | 56 | 258 | 1.7 | 4.3 | 0.00 | 0.00 | 0.00 | 55 | 1011.3 |
| 20260507180519 | 56 | 323 | 1.7 | 5.2 | 0.00 | 0.00 | 0.00 | 55 | 1011.3 |
| 20260507180019 | 56 | 335 | 2.6 | 7.0 | 0.00 | 0.00 | 0.00 | 54 | 1011.2 |
| 20260507175519 | 57 | 288 | 2.6 | 6.1 | 0.00 | 0.00 | 0.00 | 53 | 1011.2 |
| 20260507175019 | 58 | 307 | 1.7 | 4.3 | 0.00 | 0.00 | 0.00 | 52 | 1011.2 |
| 20260507174519 | 58 | 316 | 2.6 | 7.0 | 0.00 | 0.00 | 0.00 | 53 | 1011.3 |
| 20260507174020 | 58 | 266 | 2.6 | 6.1 | 0.00 | 0.00 | 0.00 | 53 | 1011.3 |
| 20260507173519 | 58 | 319 | 2.6 | 7.0 | 0.00 | 0.00 | 0.00 | 50 | 1011.4 |
| 20260507173019 | 58 | 278 | 1.7 | 5.2 | 0.00 | 0.00 | 0.00 | 50 | 1011.4 |
| 20260507172519 | 58 | 297 | 2.6 | 5.2 | 0.00 | 0.00 | 0.00 | 50 | 1011.5 |
| 20260507172020 | 58 | 290 | 2.6 | 6.1 | 0.00 | 0.00 | 0.00 | 50 | 1011.5 |
| 20260507171520 | 58 | 290 | 2.6 | 7.8 | 0.00 | 0.00 | 0.00 | 49 | 1011.5 |
| 20260507171020 | 58 | 317 | 2.6 | 6.1 | 0.00 | 0.00 | 0.00 | 49 | 1011.5 |
| 20260507170520 | 58 | 298 | 2.6 | 5.2 | 0.00 | 0.00 | 0.00 | 49 | 1011.5 |
| 20260507170024 | 58 | 292 | 2.6 | 7.8 | 0.00 | 0.00 | 0.00 | 49 | 1011.5 |
| 20260507165520 | 58 | 322 | 0.9 | 4.3 | 0.00 | 0.00 | 0.00 | 50 | 1011.5 |
| 20260507165021 | 57 | 298 | 1.7 | 6.1 | 0.00 | 0.00 | 0.00 | 52 | 1011.6 |
| 20260507164520 | 57 | 323 | 1.7 | 3.5 | 0.00 | 0.00 | 0.00 | 50 | 1011.5 |
| 20260507164020 | 56 | 335 | 2.6 | 5.2 | 0.00 | 0.00 | 0.00 | 48 | 1011.6 |
| 20260507163520 | 56 | 295 | 2.6 | 5.2 | 0.00 | 0.00 | 0.00 | 50 | 1011.6 |
| 20260507163020 | 55 | 248 | 2.6 | 6.1 | 0.00 | 0.00 | 0.00 | 51 | 1011.6 |
| 20260507162521 | 55 | 219 | 3.5 | 7.0 | 0.00 | 0.00 | 0.00 | 52 | 1011.7 |
| 20260507162021 | 54 | 289 | 2.6 | 6.1 | 0.00 | 0.00 | 0.00 | 53 | 1011.7 |
| 20260507161521 | 54 | 259 | 3.5 | 8.7 | 0.00 | 0.00 | 0.00 | 52 | 1011.8 |
| 20260507161021 | 54 | 298 | 1.7 | 2.6 | 0.00 | 0.00 | 0.00 | 53 | 1011.8 |
| 20260507160521 | 55 | 307 | 1.7 | 3.5 | 0.00 | 0.00 | 0.00 | 53 | 1011.7 |
| 20260507160021 | 55 | 356 | 0.9 | 3.5 | 0.00 | 0.00 | 0.00 | 55 | 1011.8 |
| 20260507155521 | 54 | 270 | 1.7 | 4.3 | 0.00 | 0.00 | 0.00 | 56 | 1011.9 |
| 20260507155021 | 53 | 273 | 1.7 | 3.5 | 0.00 | 0.00 | 0.00 | 56 | 1011.9 |
| 20260507154521 | 53 | 350 | 1.7 | 4.3 | 0.00 | 0.00 | 0.00 | 57 | 1011.8 |
| 20260507154022 | 54 | 52 | 1.7 | 3.5 | 0.00 | 0.00 | 0.00 | 58 | 1011.8 |
| 20260507153522 | 54 | 280 | 1.7 | 4.3 | 0.00 | 0.00 | 0.00 | 57 | 1011.8 |
| 20260507153022 | 55 | 282 | 2.6 | 4.3 | 0.00 | 0.00 | 0.00 | 58 | 1011.7 |
| 20260507152522 | 55 | 332 | 1.7 | 3.5 | 0.00 | 0.00 | 0.00 | 58 | 1011.8 |
| 20260507152022 | 55 | 339 | 1.7 | 2.6 | 0.00 | 0.00 | 0.00 | 60 | 1011.9 |
| 20260507151522 | 54 | 293 | 0.9 | 2.6 | 0.00 | 0.00 | 0.00 | 61 | 1011.9 |
| 20260507151022 | 54 | 41 | 0.9 | 3.5 | 0.00 | 0.00 | 0.00 | 61 | 1011.9 |
| 20260507150522 | 54 | 310 | 2.6 | 3.5 | 0.00 | 0.00 | 0.00 | 60 | 1011.9 |
| 20260507150022 | 55 | 272 | 1.7 | 4.3 | 0.00 | 0.00 | 0.00 | 57 | 1011.8 |
| 20260507145522 | 55 | 269 | 1.7 | 2.6 | 0.00 | 0.00 | 0.00 | 60 | 1011.8 |
| 20260507145023 | 55 | 16 | 1.7 | 2.6 | 0.00 | 0.00 | 0.00 | 57 | 1011.8 |
| 20260507144522 | 55 | 257 | 1.7 | 2.6 | 0.00 | 0.00 | 0.00 | 55 | 1011.8 |
| 20260507144022 | 54 | 323 | 1.7 | 3.5 | 0.00 | 0.00 | 0.00 | 57 | 1011.8 |
| 20260507143523 | 54 | 257 | 2.6 | 4.3 | 0.00 | 0.00 | 0.00 | 57 | 1011.8 |
| 20260507143017 | 54 | 321 | 2.6 | 6.1 | 0.00 | 0.00 | 0.00 | 58 | 1011.8 |
| 20260507142517 | 54 | 254 | 2.6 | 5.2 | 0.00 | 0.00 | 0.00 | 59 | 1011.8 |
| 20260507142023 | 54 | 275 | 1.7 | 2.6 | 0.00 | 0.00 | 0.00 | 58 | 1011.9 |
| 20260507141523 | 54 | 294 | 1.7 | 2.6 | 0.00 | 0.00 | 0.00 | 61 | 1012.0 |
| 20260507141023 | 53 | 323 | 0.9 | 2.6 | 0.00 | 0.00 | 0.00 | 63 | 1012.0 |
| 20260507140517 | 53 | 282 | 1.7 | 5.2 | 0.00 | 0.00 | 0.00 | 63 | 1012.1 |
| 20260507140023 | 53 | 344 | 1.7 | 3.5 | 0.00 | 0.00 | 0.00 | 64 | 1012.2 |
| 20260507135523 | 53 | 295 | 0.9 | 2.6 | 0.00 | 0.00 | 0.00 | 66 | 1012.2 |
| 20260507135023 | 52 | 35 | 0.9 | 1.7 | 0.00 | 0.00 | 0.00 | 68 | 1012.3 |
| 20260507134523 | 52 | 273 | 1.7 | 3.5 | 0.00 | 0.00 | 0.00 | 68 | 1012.4 |
| 20260507134023 | 52 | 282 | 0.9 | 2.6 | 0.00 | 0.00 | 0.00 | 68 | 1012.4 |
| 20260507133524 | 52 | 277 | 1.7 | 3.5 | 0.00 | 0.00 | 0.00 | 70 | 1012.4 |
| 20260507133024 | 51 | 323 | 1.7 | 3.5 | 0.00 | 0.00 | 0.00 | 71 | 1012.5 |
| 20260507132524 | 50 | 262 | 1.7 | 2.6 | 0.00 | 0.00 | 0.00 | 71 | 1012.6 |
| 20260507132024 | 50 | 284 | 1.7 | 4.3 | 0.00 | 0.00 | 0.00 | 72 | 1012.6 |
| 20260507131524 | 50 | 228 | 1.7 | 2.6 | 0.00 | 0.00 | 0.00 | 72 | 1012.6 |
| 20260507131024 | 50 | 280 | 1.7 | 2.6 | 0.00 | 0.00 | 0.00 | 72 | 1012.6 |
| 20260507130524 | 49 | 279 | 2.6 | 3.5 | 0.00 | 0.00 | 0.00 | 72 | 1012.7 |
| 20260507130019 | 49 | 251 | 1.7 | 4.3 | 0.00 | 0.00 | 0.00 | 72 | 1012.7 |
| 20260507125525 | 49 | 255 | 0.9 | 2.6 | 0.00 | 0.00 | 0.00 | 73 | 1012.7 |
| 20260507125025 | 48 | 278 | 1.7 | 2.6 | 0.00 | 0.00 | 0.00 | 73 | 1012.7 |
| 20260507124525 | 48 | 287 | 1.7 | 2.6 | 0.00 | 0.00 | 0.00 | 73 | 1012.7 |
| 20260507124025 | 48 | 272 | 2.6 | 3.5 | 0.00 | 0.00 | 0.00 | 73 | 1012.7 |
| 20260507123525 | 48 | 255 | 0.9 | 2.6 | 0.00 | 0.00 | 0.00 | 75 | 1012.8 |
| 20260507123025 | 47 | 252 | 0.9 | 1.7 | 0.00 | 0.00 | 0.00 | 75 | 1012.8 |
| 20260507122525 | 47 | 215 | 0.9 | 1.7 | 0.00 | 0.00 | 0.00 | 75 | 1012.8 |
| 20260507122025 | 46 | 235 | 1.7 | 3.5 | 0.00 | 0.00 | 0.00 | 76 | 1012.8 |
| 20260507121525 | 46 | 227 | 1.7 | 4.3 | 0.00 | 0.00 | 0.00 | 76 | 1012.8 |
| 20260507121026 | 46 | 215 | 1.7 | 4.3 | 0.00 | 0.00 | 0.00 | 77 | 1012.7 |
| 20260507120526 | 46 | 266 | 1.7 | 2.6 | 0.00 | 0.00 | 0.00 | 78 | 1012.7 |
| 20260507120026 | 45 | 246 | 1.7 | 3.5 | 0.00 | 0.00 | 0.00 | 79 | 1012.8 |
| 20260507115526 | 45 | 237 | 1.7 | 2.6 | 0.00 | 0.00 | 0.00 | 80 | 1012.7 |
| 20260507115026 | 45 | 255 | 1.7 | 4.3 | 0.00 | 0.00 | 0.00 | 81 | 1012.8 |
| 20260507114525 | 45 | 206 | 1.7 | 3.5 | 0.00 | 0.00 | 0.00 | 81 | 1012.8 |
| 20260507114026 | 44 | 225 | 1.7 | 3.5 | 0.00 | 0.00 | 0.00 | 82 | 1012.8 |
| 20260507113526 | 44 | 238 | 1.7 | 2.6 | 0.00 | 0.00 | 0.00 | 83 | 1012.8 |
| 20260507113026 | 43 | 228 | 1.7 | 2.6 | 0.00 | 0.00 | 0.00 | 84 | 1012.9 |
| 20260507112526 | 43 | 252 | 2.6 | 3.5 | 0.00 | 0.00 | 0.00 | 86 | 1012.7 |
| 20260507112027 | 42 | 224 | 0.9 | 2.6 | 0.00 | 0.00 | 0.00 | 88 | 1012.7 |
| 20260507111526 | 42 | 222 | 0.9 | 1.7 | 0.00 | 0.00 | 0.00 | 89 | 1012.7 |
| 20260507111026 | 42 | 247 | 0.9 | 1.7 | 0.00 | 0.00 | 0.00 | 89 | 1012.7 |
| 20260507110527 | 42 | 221 | 0.0 | 0.9 | 0.00 | 0.00 | 0.00 | 90 | 1012.6 |
| 20260507110026 | 41 | 230 | 0.0 | 0.9 | 0.00 | 0.00 | 0.00 | 90 | 1012.5 |
| 20260507105527 | 41 | 241 | 0.0 | 1.7 | 0.00 | 0.00 | 0.00 | 90 | 1012.5 |
| 20260507105027 | 41 | 0.0 | 0.0 | 0.00 | 0.00 | 0.00 | 90 | 1012.4 | |
| 20260507104527 | 41 | 0.0 | 0.0 | 0.00 | 0.00 | 0.00 | 90 | 1012.4 | |
| 20260507104027 | 41 | 0.0 | 0.0 | 0.00 | 0.00 | 0.00 | 90 | 1012.4 | |
| 20260507103527 | 41 | 0.0 | 0.0 | 0.00 | 0.00 | 0.00 | 90 | 1012.3 | |
| 20260507103028 | 40 | 0.0 | 0.0 | 0.00 | 0.00 | 0.00 | 90 | 1012.4 | |
| 20260507102527 | 40 | 0.0 | 0.0 | 0.00 | 0.00 | 0.00 | 90 | 1012.4 | |
| 20260507102027 | 40 | 227 | 0.0 | 0.9 | 0.00 | 0.00 | 0.00 | 89 | 1012.4 |
| 20260507101528 | 40 | 0.0 | 0.0 | 0.00 | 0.00 | 0.00 | 89 | 1012.3 | |
| 20260507101027 | 40 | 0.0 | 0.0 | 0.00 | 0.00 | 0.00 | 89 | 1012.3 | |
| 20260507100528 | 41 | 0.0 | 0.0 | 0.00 | 0.00 | 0.00 | 88 | 1012.4 | |
| 20260507100027 | 41 | 0.0 | 0.0 | 0.00 | 0.00 | 0.00 | 88 | 1012.4 | |
| 20260507095528 | 41 | 0.0 | 0.0 | 0.00 | 0.00 | 0.00 | 88 | 1012.3 | |
| 20260507095028 | 41 | 0.0 | 0.0 | 0.00 | 0.00 | 0.00 | 88 | 1012.3 | |
| 20260507094528 | 41 | 0.0 | 0.0 | 0.00 | 0.00 | 0.00 | 88 | 1012.2 | |
| 20260507094028 | 41 | 0.0 | 0.0 | 0.00 | 0.00 | 0.00 | 87 | 1012.3 | |
| 20260507093528 | 41 | 193 | 0.0 | 0.9 | 0.00 | 0.00 | 0.00 | 87 | 1012.3 |
| 20260507093029 | 41 | 225 | 0.0 | 0.9 | 0.00 | 0.00 | 0.00 | 87 | 1012.3 |
| 20260507092528 | 41 | 0.0 | 0.0 | 0.00 | 0.00 | 0.00 | 87 | 1012.3 | |
| 20260507092028 | 42 | 233 | 0.0 | 0.9 | 0.00 | 0.00 | 0.00 | 86 | 1012.3 |
| 20260507091528 | 42 | 0.0 | 0.0 | 0.00 | 0.01 | 0.00 | 86 | 1012.3 | |
| 20260507091030 | 42 | 0.0 | 0.0 | 0.00 | 0.01 | 0.00 | 85 | 1012.3 | |
| 20260507090528 | 42 | 0.0 | 0.0 | 0.00 | 0.01 | 0.00 | 85 | 1012.3 | |
| 20260507090028 | 42 | 0.0 | 0.0 | 0.00 | 0.01 | 0.00 | 85 | 1012.4 | |
| 20260507085529 | 43 | 238 | 0.0 | 0.9 | 0.00 | 0.01 | 0.00 | 85 | 1012.4 |
| 20260507085029 | 43 | 227 | 0.0 | 0.9 | 0.00 | 0.01 | 0.00 | 85 | 1012.4 |
| 20260507084530 | 43 | 233 | 0.9 | 1.7 | 0.00 | 0.01 | 0.00 | 86 | 1012.4 |
| 20260507084029 | 43 | 233 | 0.9 | 1.7 | 0.00 | 0.01 | 0.00 | 86 | 1012.4 |
| 20260507083529 | 43 | 247 | 0.0 | 0.9 | 0.00 | 0.01 | 0.00 | 86 | 1012.4 |
| 20260507083029 | 42 | 232 | 0.0 | 0.9 | 0.00 | 0.01 | 0.00 | 87 | 1012.5 |
| 20260507082530 | 42 | 234 | 0.0 | 0.9 | 0.00 | 0.01 | 0.00 | 87 | 1012.5 |
| 20260507082029 | 42 | 211 | 0.9 | 1.7 | 0.00 | 0.01 | 0.00 | 87 | 1012.5 |
| 20260507081530 | 42 | 234 | 0.0 | 0.9 | 0.00 | 0.02 | 0.00 | 87 | 1012.5 |
| 20260507081030 | 42 | 262 | 0.0 | 0.9 | 0.00 | 0.02 | 0.00 | 87 | 1012.5 |
| 20260507080530 | 42 | 242 | 0.0 | 1.7 | 0.00 | 0.03 | 0.00 | 87 | 1012.4 |
| 20260507080030 | 42 | 0.0 | 0.0 | 0.00 | 0.04 | 0.00 | 87 | 1012.4 | |
| 20260507075530 | 42 | 0.0 | 0.0 | 0.00 | 0.04 | 0.00 | 87 | 1012.4 |